Flag for U.S.A. Weather past 2 weeks in Arlington, Texas, U.S.A.

Now
99 °F

Sunny.


Feels Like: 99 °F
Forecast: 74 / 101 °F
Wind: 5 mph from North

Location: Arlington Municipal Airport

Current Time: Jul 30, 2015 at 1:15:40 PM

Latest Report: Jul 30, 2015 at 12:53 PM


Visibility: 10 mi

Pressure: 30.06 "Hg

Humidity: 28%

Dew point: 60 °F

Location of ArlingtonLocation

Historic Weather in Arlington — Graph

°F

Arlington temperature yesterday

Maximum temperature yesterday: 101 °F (at 4:53 PM)
Minimum temperature yesterday: 78 °F (at 6:53 AM)
Average temperature yesterday: 89 °F

Past Weeks' High & Low Weather Summary

 TemperatureHumidityPressure
High101 °F (Jul 29, 4:53 PM)79% (Jul 16, 6:53 AM)30.07 "Hg (Jul 16, 6:53 AM)
Low75 °F (Jul 16, 5:53 AM)23% (Jul 25, 4:53 PM)29.76 "Hg (Jul 21, 6:53 PM)
Average88 °F50%29.90 "Hg
* Reported Jul 15 11:53 AM — Jul 30 11:53 AM, Arlington, Weather by CustomWeather, © 2015

Note: Actual official high and low records may vary slightly from our data, if they occured in-between our weather recording intervals... More about our weather records

Advertising

Arlington weather history for previous 24 hours

 ConditionsComfort  
Time TempWeatherWind HumidityBarometerVisibility
11:53 AM
Thu, Jul 30
99 °FSunny.3 mph32%30.07 "Hg10 mi
10:53 AM96 °FSunny.No wind40%30.07 "Hg8 mi
9:53 AM92 °FSunny.7 mph46%30.07 "Hg10 mi
8:53 AM87 °FSunny.No wind51%30.06 "Hg10 mi
7:53 AM82 °FSunny.No wind63%30.04 "Hg10 mi
6:53 AM75 °FClear.No wind76%30.03 "Hg10 mi
5:53 AM75 °FClear.No wind76%30.02 "Hg10 mi
4:53 AM77 °FClear.No wind69%30.01 "Hg10 mi
3:53 AM76 °FClear.No wind77%30.01 "Hg10 mi
2:53 AM78 °FClear.3 mph69%30.01 "Hg10 mi
1:53 AM78 °FClear.No wind69%30.01 "Hg10 mi
12:53 AM80 °FClear.No wind64%30.01 "Hg10 mi
11:53 PM
Wed, Jul 29
82 °FClear.3 mph58%30.01 "Hg10 mi
10:53 PM82 °FClear.3 mph58%29.99 "Hg10 mi
9:53 PM88 °FClear.3 mph43%29.97 "Hg10 mi
8:53 PM91 °FSunny.6 mph39%29.95 "Hg10 mi
7:53 PM97 °FSunny.9 mph29%29.94 "Hg10 mi
6:53 PM99 °FSunny.13 mph28%29.93 "Hg10 mi
5:53 PM101 °FSunny.8 mph25%29.94 "Hg10 mi
4:53 PM101 °FSunny.3 mph25%29.95 "Hg10 mi
3:53 PM100 °FSunny.6 mph27%29.97 "Hg10 mi
2:53 PM100 °FSunny.8 mph24%29.98 "Hg10 mi
1:53 PM98 °FSunny.5 mph31%29.99 "Hg10 mi
Weather by CustomWeather, © 2015

See weather overviewHow to use our weather pages